Back to catalog

FENGYUN 1C DEB

AliveSSO
NORAD 30609·DEBRIS·🇨🇳 China

Launched May 10, 1999 from Taiyuan Satellite Launch Center

Loading…

Next Passes (next 24 hours)

TLE

FreshSource: Space-Track

Epoch: Sep 14, 2026, 11:02 UTC

1 30609U 99025AMQ 26257.45995733  .00002502  00000-0  12739-2 0  9993
2 30609  98.5605 167.0612 0117492 346.8514  12.9603 14.13138265996202

Track FENGYUN 1C DEB in real time with AllMySat

Download on the App Store